Murray, KY

4:31 PM CDT on August 18, 2019 (GMT -0500)
Kyle-Oakley

Weather History for KCEY - May, 2019

Change the Weather History Date:

Saturday, May 18, 2019

  Actual Average (KPAH) Record (KPAH)
Temperature  
Mean Temperature 75 °F -  
Max Temperature 84 °F 79 °F 92 °F (1951)
Min Temperature 66 °F 57 °F 39 °F (2002)
Cooling Degree Days 10    
Growing Degree Days 25 (Base 50)    
Moisture  
Dew Point 63 °F    
Average Humidity 67    
Maximum Humidity 100    
Minimum Humidity 40    
Precipitation  
Precipitation 0.00 in - - ()
Sea Level Pressure  
Sea Level Pressure 29.90 in    
Wind  
Wind Speed 8 mph (SSE)    
Max Wind Speed 17 mph    
Max Gust Speed 26 mph    
Visibility 10 miles    
Events      
Averages and records for this station are not official NWS values.
T = Trace of Precipitation, MM = Missing Value Source: NWS Daily Summary

Daily Weather History Graph

Daily Weather History Graph

Search for Another Location

Airport or City:

Astronomy

May. 18, 2019 Rise Set
Actual Time 5:44 AM CDT 7:56 PM CDT
Civil Twilight 5:15 AM CDT 8:25 PM CDT
Nautical Twilight 4:39 AM CDT 9:01 PM CDT
Astronomical Twilight 4:00 AM CDT 9:39 PM CDT
Moon 7:52 PM CDT 5:48 AM CDT
Length of Visible Light 15h 10m
Length of Day
14h 12m
Full, 100% of the Moon is Illuminated
May 18
Full
May 18
Full
May 26
Last Quarter
Jun 3
New
Jun 10
First Quarter

Hourly Weather History & Observations

Time (CDT) Temp. Heat Index Dew Point Humidity Pressure Visibility Wind Dir Wind Speed Gust Speed Precip Events Conditions
12:15 AM 71.6 °F - 66.2 °F 83% 29.93 in 10.0 mi SSE 6.9 mph - N/A   Clear
12:35 AM 71.6 °F - 66.2 °F 83% 29.92 in 10.0 mi SSE 6.9 mph - N/A   Clear
12:55 AM 71.6 °F - 66.2 °F 83% 29.92 in 10.0 mi SSE 5.8 mph - N/A   Clear
1:15 AM 71.6 °F - 66.2 °F 83% 29.92 in 10.0 mi SSE 6.9 mph - N/A   Clear
1:35 AM 69.8 °F - 66.2 °F 88% 29.92 in 10.0 mi SSE 8.1 mph - N/A   Clear
1:55 AM 69.8 °F - 66.2 °F 88% 29.92 in 10.0 mi SSE 5.8 mph - N/A   Clear
2:15 AM 69.8 °F - 66.2 °F 88% 29.92 in 10.0 mi SSE 5.8 mph - N/A   Clear
2:35 AM 68.0 °F - 66.2 °F 94% 29.92 in 10.0 mi SSE 5.8 mph - N/A   Clear
2:55 AM 68.0 °F - 66.2 °F 94% 29.92 in 10.0 mi SSE 5.8 mph - N/A   Clear
3:15 AM 68.0 °F - 66.2 °F 94% 29.92 in 10.0 mi SSE 5.8 mph - N/A   Clear
3:35 AM 68.0 °F - 66.2 °F 94% 29.92 in 10.0 mi SSE 5.8 mph - N/A   Clear
3:55 AM 68.0 °F - 68.0 °F 100% 29.92 in 10.0 mi SSE 6.9 mph - N/A   Clear
4:15 AM 68.0 °F - 68.0 °F 100% 29.92 in 10.0 mi SE 5.8 mph - N/A   Clear
4:35 AM 66.2 °F - 66.2 °F 100% 29.92 in 10.0 mi SSE 5.8 mph - N/A   Clear
4:55 AM 66.2 °F - 66.2 °F 100% 29.92 in 10.0 mi SSE 8.1 mph - N/A   Clear
5:15 AM 66.2 °F - 66.2 °F 100% 29.92 in 10.0 mi SSE 8.1 mph - N/A   Clear
5:35 AM 66.2 °F - 66.2 °F 100% 29.93 in 10.0 mi SSE 6.9 mph - N/A   Clear
5:55 AM 66.2 °F - 66.2 °F 100% 29.93 in 10.0 mi SSE 8.1 mph - N/A   Clear
6:15 AM 66.2 °F - 66.2 °F 100% 29.94 in 10.0 mi SSE 8.1 mph - N/A   Clear
6:35 AM 68.0 °F - 68.0 °F 100% 29.95 in 10.0 mi South 4.6 mph - N/A   Clear
6:55 AM 68.0 °F - 68.0 °F 100% 29.95 in 10.0 mi South 6.9 mph - N/A   Clear
7:15 AM 71.6 °F - 68.0 °F 88% 29.96 in 10.0 mi South 5.8 mph - N/A   Clear
7:35 AM 71.6 °F - 68.0 °F 88% 29.97 in 10.0 mi South 4.6 mph - N/A   Clear
7:55 AM 73.4 °F - 66.2 °F 78% 29.97 in 10.0 mi South 5.8 mph - N/A   Clear
8:15 AM 75.2 °F - 66.2 °F 73% 29.97 in 10.0 mi South 6.9 mph - N/A   Clear
8:35 AM 75.2 °F - 66.2 °F 73% 29.97 in 10.0 mi South 5.8 mph - N/A   Clear
8:55 AM 77.0 °F - 64.4 °F 65% 29.97 in 10.0 mi SSW 10.4 mph - N/A   Clear
9:15 AM 77.0 °F - 64.4 °F 65% 29.97 in 10.0 mi South 10.4 mph - N/A   Clear
9:35 AM 78.8 °F - 64.4 °F 61% 29.97 in 10.0 mi South 10.4 mph - N/A   Clear
9:55 AM 78.8 °F - 62.6 °F 57% 29.96 in 10.0 mi South 8.1 mph - N/A   Clear
10:15 AM 80.6 °F 82.3 °F 64.4 °F 58% 29.96 in 10.0 mi SSW 9.2 mph 16.1 mph N/A   Clear
10:35 AM 80.6 °F 82.3 °F 64.4 °F 58% 29.95 in 10.0 mi SSW 10.4 mph - N/A   Clear
10:55 AM 82.4 °F 83.9 °F 64.4 °F 54% 29.95 in 10.0 mi South 9.2 mph - N/A   Clear
11:15 AM 82.4 °F 83.9 °F 64.4 °F 54% 29.94 in 10.0 mi South 10.4 mph 19.6 mph N/A   Clear
11:35 AM 82.4 °F 83.9 °F 64.4 °F 54% 29.93 in 10.0 mi South 9.2 mph - N/A   Clear
11:55 AM 82.4 °F 83.4 °F 62.6 °F 51% 29.93 in 10.0 mi South 13.8 mph 19.6 mph N/A   Clear
12:15 PM 82.4 °F 83.4 °F 62.6 °F 51% 29.92 in 10.0 mi South 13.8 mph 21.9 mph N/A   Clear
12:35 PM 84.2 °F 85.6 °F 64.4 °F 51% 29.92 in 10.0 mi South 13.8 mph 19.6 mph N/A   Clear
12:55 PM 84.2 °F 85.0 °F 62.6 °F 48% 29.92 in 10.0 mi South 16.1 mph 23.0 mph N/A   Scattered Clouds
1:15 PM 84.2 °F 85.6 °F 64.4 °F 51% 29.91 in 10.0 mi South 9.2 mph 23.0 mph N/A   Partly Cloudy
1:35 PM 82.4 °F 83.4 °F 62.6 °F 51% 29.90 in 10.0 mi SSE 13.8 mph 21.9 mph N/A   Scattered Clouds
1:55 PM 84.2 °F 85.0 °F 62.6 °F 48% 29.89 in 10.0 mi South 9.2 mph 19.6 mph N/A   Scattered Clouds
2:15 PM 84.2 °F 84.4 °F 60.8 °F 45% 29.89 in 10.0 mi SSE 13.8 mph 25.3 mph N/A   Clear
2:35 PM 84.2 °F 85.0 °F 62.6 °F 48% 29.88 in 10.0 mi SSE 13.8 mph 23.0 mph N/A   Partly Cloudy
2:55 PM 84.2 °F 85.0 °F 62.6 °F 48% 29.87 in 10.0 mi SSE 15.0 mph 24.2 mph N/A   Partly Cloudy
3:15 PM 84.2 °F 84.4 °F 60.8 °F 45% 29.86 in 10.0 mi SSE 12.7 mph 23.0 mph N/A   Partly Cloudy
3:35 PM 84.2 °F 83.8 °F 59.0 °F 42% 29.86 in 10.0 mi SSE 15.0 mph 26.5 mph N/A   Clear
3:55 PM 84.2 °F 83.8 °F 59.0 °F 42% 29.86 in 10.0 mi South 13.8 mph 21.9 mph N/A   Clear
4:15 PM 84.2 °F 83.5 °F 57.2 °F 40% 29.86 in 10.0 mi SSE 16.1 mph 26.5 mph N/A   Clear
4:35 PM 84.2 °F 83.5 °F 57.2 °F 40% 29.85 in 10.0 mi SSE 17.3 mph 25.3 mph N/A   Clear
4:55 PM 84.2 °F 83.8 °F 59.0 °F 42% 29.85 in 10.0 mi South 11.5 mph 21.9 mph N/A   Clear
5:15 PM 82.4 °F 82.5 °F 59.0 °F 45% 29.85 in 10.0 mi South 9.2 mph 17.3 mph N/A   Clear
5:35 PM 82.4 °F 82.0 °F 57.2 °F 42% 29.85 in 10.0 mi SSE 13.8 mph 23.0 mph N/A   Clear
5:55 PM 82.4 °F 82.5 °F 59.0 °F 45% 29.84 in 10.0 mi SSE 10.4 mph 19.6 mph N/A   Clear
6:15 PM 82.4 °F 82.5 °F 59.0 °F 45% 29.84 in 10.0 mi South 10.4 mph 19.6 mph N/A   Clear
6:35 PM 82.4 °F 82.5 °F 59.0 °F 45% 29.83 in 10.0 mi SSE 12.7 mph 17.3 mph N/A   Clear
6:55 PM 80.6 °F 81.1 °F 59.0 °F 48% 29.83 in 10.0 mi SSE 10.4 mph 18.4 mph N/A   Clear
7:15 PM 80.6 °F 81.1 °F 59.0 °F 48% 29.83 in 10.0 mi SSE 8.1 mph 16.1 mph N/A   Clear
7:35 PM 77.0 °F - 59.0 °F 54% 29.83 in 10.0 mi SSE 5.8 mph - N/A   Clear
7:55 PM 77.0 °F - 59.0 °F 54% 29.83 in 10.0 mi SSE 5.8 mph - N/A   Clear
8:15 PM 75.2 °F - 60.8 °F 61% 29.83 in 10.0 mi SE 6.9 mph - N/A   Clear
8:35 PM 75.2 °F - 60.8 °F 61% 29.83 in 10.0 mi SE 4.6 mph - N/A   Clear
8:55 PM 75.2 °F - 60.8 °F 61% 29.83 in 10.0 mi SSE 8.1 mph - N/A   Partly Cloudy
9:15 PM 75.2 °F - 60.8 °F 61% 29.83 in 10.0 mi SSE 9.2 mph - N/A   Partly Cloudy
9:35 PM 75.2 °F - 60.8 °F 61% 29.83 in 10.0 mi SSE 8.1 mph - N/A   Partly Cloudy
9:55 PM 75.2 °F - 60.8 °F 61% 29.85 in 10.0 mi SSE 11.5 mph 17.3 mph N/A   Mostly Cloudy
10:15 PM 75.2 °F - 62.6 °F 65% 29.85 in 10.0 mi SSE 9.2 mph - N/A   Scattered Clouds
10:35 PM 75.2 °F - 62.6 °F 65% 29.83 in 10.0 mi SSE 9.2 mph 16.1 mph N/A   Clear
10:55 PM 75.2 °F - 62.6 °F 65% 29.83 in 10.0 mi SSE 13.8 mph 18.4 mph N/A   Clear
11:15 PM 75.2 °F - 62.6 °F 65% 29.82 in 10.0 mi SSE 12.7 mph 19.6 mph N/A   Clear
11:35 PM 75.2 °F - 62.6 °F 65% 29.83 in 10.0 mi SSE 13.8 mph 21.9 mph N/A   Scattered Clouds
11:55 PM 75.2 °F - 62.6 °F 65% 29.83 in 10.0 mi South 11.5 mph 20.7 mph N/A   Scattered Clouds